LZ3VG Weather Reports


time (UTC)temp
C
wind
direction
speed
KPH
gust
KPH
rain 1hr
cm
rain 24hr
cm
rain mn
cm
humidity
%
barometer
mb
20260505060045 11 194 3.2 9.7 0.00 0.00 0.00 70 1016.6
20260505055022 10 216 4.8 9.7 0.00 0.00 0.00 72 1016.4
20260505054030 10 200 4.8 9.7 0.00 0.00 0.00 72 1016.5
20260505053038 9 218 4.8 11.3 0.00 0.00 0.00 74 1016.4
20260505052050 8 246 8.0 12.9 0.00 0.00 0.00 75 1016.3
20260505051021 8 229 8.0 12.9 0.00 0.00 0.00 76 1016.3
20260505041038 6 204 8.0 12.9 0.00 0.00 0.00 79 1016.0
20260505040030 6 215 8.0 14.5 0.00 0.00 0.00 78 1015.9
20260505035022 6 231 11.3 17.7 0.00 0.00 0.00 79 1015.8
20260505034030 5 180 4.8 12.9 0.00 0.00 0.00 83 1015.8
20260505033022 5 196 4.8 8.0 0.00 0.00 0.00 83 1015.9
20260505032046 5 116 4.8 9.7 0.00 0.00 0.00 81 1015.6
20260505031022 5 220 6.4 12.9 0.00 0.00 0.00 81 1015.6
20260505030046 5 242 8.0 12.9 0.00 0.00 0.00 82 1015.5
20260505025038 5 220 8.0 11.3 0.00 0.00 0.00 85 1015.5
20260505024050 5 223 9.7 14.5 0.00 0.00 0.00 86 1015.5
20260505023022 5 235 6.4 11.3 0.00 0.00 0.00 84 1015.4
20260505022030 5 223 11.3 17.7 0.00 0.00 0.00 80 1015.5
20260505021023 5 230 9.7 16.1 0.00 0.00 0.00 82 1015.5
20260505020046 5 238 9.7 17.7 0.00 0.00 0.00 86 1015.5
20260505015023 5 240 12.9 17.7 0.00 0.00 0.00 85 1015.6
20260505014047 5 231 9.7 14.5 0.00 0.00 0.00 86 1015.6
20260505013023 5 224 9.7 14.5 0.00 0.00 0.00 85 1015.6
20260505012030 5 211 8.0 14.5 0.00 0.00 0.00 84 1015.7
20260505011034 5 199 4.8 11.3 0.00 0.00 0.00 82 1015.6
20260505010046 5 217 6.4 14.5 0.00 0.00 0.00 82 1015.7
20260505005024 6 232 9.7 14.5 0.00 0.00 0.00 78 1015.7
20260505004047 6 219 12.9 20.9 0.00 0.00 0.00 78 1015.7
20260505003058 6 232 9.7 14.5 0.00 0.00 0.00 80 1015.7
20260505002106 6 229 9.7 14.5 0.00 0.00 0.00 81 1015.7
20260505001058 6 181 4.8 9.7 0.00 0.00 0.00 79 1015.7
20260505000030 5 233 6.4 11.3 0.00 0.00 0.00 80 1015.8
20260504235054 5 228 6.4 11.3 0.00 0.00 0.00 82 1015.9
20260504234030 5 237 6.4 12.9 0.00 0.00 0.00 82 1016.0
20260504233022 6 234 8.0 12.9 0.00 0.00 0.00 82 1015.9
20260504232046 6 83 1.6 3.2 0.00 0.00 0.00 80 1016.0
20260504231058 6 250 3.2 4.8 0.00 0.00 0.00 76 1016.1
20260504230049 6 242 3.2 9.7 0.00 0.00 0.00 78 1016.2
20260504225038 7 224 4.8 9.7 0.00 0.00 0.00 77 1016.4
20260504224030 7 248 3.2 4.8 0.00 0.00 0.00 81 1016.3
20260504223022 7 29 1.6 3.2 0.00 0.00 0.00 80 1016.4
20260504222031 8 99 1.6 4.8 0.00 0.00 0.00 77 1016.4
20260504221022 8 123 3.2 3.2 0.00 0.00 0.00 74 1016.5
20260504220123 8 356 1.6 3.2 0.00 0.00 0.00 70 1016.6
20260504215038 9 315 3.2 9.7 0.00 0.00 0.00 65 1016.7
20260504214048 9 344 9.7 12.9 0.00 0.00 0.00 65 1016.6
20260504213025 9 326 6.4 12.9 0.00 0.00 0.00 67 1016.6
20260504212046 8 353 6.4 14.5 0.00 0.00 0.00 68 1016.6
20260504211039 8 356 4.8 9.7 0.00 0.00 0.00 67 1016.6
20260504210035 8 344 4.8 9.7 0.00 0.00 0.00 69 1016.4
20260504205053 9 339 6.4 12.9 0.00 0.00 0.00 66 1016.6
20260504204047 10 2 1.6 3.2 0.00 0.00 0.00 62 1016.5
20260504203038 10 61 0.0 1.6 0.00 0.00 0.00 62 1016.5
20260504202031 11 92 0.0 4.8 0.00 0.00 0.00 57 1016.5
20260504201034 11 354 1.6 3.2 0.00 0.00 0.00 56 1016.6
20260504200104 11 346 1.6 4.8 0.00 0.00 0.00 54 1016.5
20260504195035 11 336 1.6 3.2 0.00 0.00 0.00 55 1016.5
20260504194107 11 7 1.6 3.2 0.00 0.00 0.00 55 1016.6
20260504193048 11 348 3.2 8.0 0.00 0.00 0.00 56 1016.6
20260504192103 11 260 1.6 3.2 0.00 0.00 0.00 57 1016.7
20260504191025 11 273 1.6 8.0 0.00 0.00 0.00 58 1016.6
20260504190050 11 277 3.2 8.0 0.00 0.00 0.00 59 1016.6
20260504185022 11 341 1.6 3.2 0.00 0.00 0.00 56 1016.6
20260504184046 12 42 0.0 1.6 0.00 0.00 0.00 55 1016.5
20260504183023 12 71 1.6 3.2 0.00 0.00 0.00 54 1016.5
20260504182031 12 336 1.6 3.2 0.00 0.00 0.00 54 1016.5
20260504181039 12 70 1.6 3.2 0.00 0.00 0.00 52 1016.5
20260504180046 12 40 1.6 3.2 0.00 0.00 0.00 52 1016.4
20260504175023 12 40 0.0 1.6 0.00 0.00 0.00 53 1016.4
20260504174032 12 44 1.6 1.6 0.00 0.00 0.00 55 1016.3
20260504173039 12 39 0.0 1.6 0.00 0.00 0.00 56 1016.3
20260504172030 12 43 0.0 1.6 0.00 0.00 0.00 54 1016.2
20260504171039 13 142 3.2 4.8 0.00 0.00 0.00 52 1016.1
20260504151038 14 50 9.7 22.5 0.00 0.00 0.00 50 1015.3
20260504141022 15 60 8.0 14.5 0.00 0.00 0.00 49 1015.1
20260504110535 17 355 12.9 27.4 0.00 0.00 0.00 43 1015.3
20260504100535 17 4 12.9 22.5 0.00 0.00 0.00 41 1015.6
20260504081527 15 354 16.1 29.0 0.00 0.00 0.00 47 1015.6
20260504080559 15 337 17.7 29.0 0.00 0.00 0.00 47 1015.8